Location: Shepherdstown, WV
(39.4326°N, 77.8042°W)
Time: 19:35:16
(UTC-04:00)

Vanguard 3 - Pass Details

Date: 30 July 2021
Orbit: 510 x 3260 km, 33.3° (Epoch: 18 September)

Event Time Altitude Azimuth Distance (km) Brightness Sun altitude
Rises 22:45:46 0° 272° (W) 6,700 12.4 -22.3°
Reaches altitude 10° 22:49:55 10° 271° (W) 5,895 12.0 -22.8°
Maximum altitude 23:09:14 67° 194° (SSW) 3,390 10.0 -25.0°
Enters shadow 23:20:15 31° 124° (SE) 4,229 10.2 -26.2°
